Flag for U.S.A. Weather past 2 weeks in Buffalo, New York, U.S.A.

Now
61 °F

Passing clouds.


Feels Like: 61 °F
Forecast: 58 / 74 °F
Wind: 5 mph from Southeast

Location: Greater Buffalo International Airport

Current Time: Oct 2, 2014 at 2:42:55 AM

Latest Report: Oct 2, 2014 at 1:54 AM


Visibility: 7 mi

Pressure: 30.07 "Hg

Humidity: 87%

Dew point: 57 °F

Location of BuffaloLocation

Historic Weather in Buffalo — Graph

°F

Buffalo temperature yesterday

Maximum temperature yesterday: 70 °F (at 4:54 PM)
Minimum temperature yesterday: 58 °F (at 5:54 AM)
Average temperature yesterday: 62 °F

Past Weeks' High & Low Weather Summary

 TemperatureHumidityPressure
High79 °F (Sep 27, 3:54 PM)93% (Sep 19, 6:57 AM)30.51 "Hg (Sep 19, 6:57 AM)
Low41 °F (Sep 19, 3:54 AM)36% (Sep 27, 4:54 PM)29.58 "Hg (Sep 21, 12:54 PM)
Average61 °F71%30.12 "Hg
* Reported Sep 17 12:54 AM — Oct 2 12:54 AM, Buffalo, Weather by CustomWeather, © 2014

Note: Actual official high and low records may vary slightly from our data, if they occured in-between our weather recording intervals... More about our weather records

Advertising

Buffalo weather history for previous 24 hours

 ConditionsComfort  
Time TempWeatherWind HumidityBarometerVisibility
12:54 AM
Oct 2
61 °FFog.7 mph87%30.07 "Hg6 mi
11:54 PM
Oct 1
61 °FFog.10 mph87%30.07 "Hg5 mi
10:54 PM61 °FFog.10 mph87%30.08 "Hg4 mi
9:54 PM61 °FFog.10 mph90%30.07 "Hg5 mi
8:54 PM62 °FFog.10 mph86%30.07 "Hg5 mi
7:54 PM62 °FFog.12 mph90%30.06 "Hg6 mi
6:54 PM64 °FHaze.9 mph84%30.05 "Hg6 mi
5:54 PM68 °FPassing clouds.9 mph73%30.03 "Hg8 mi
4:54 PM70 °FPassing clouds.5 mph66%30.03 "Hg8 mi
3:54 PM68 °FScattered clouds.8 mph73%30.03 "Hg8 mi
2:54 PM67 °FBroken clouds.6 mph73%30.03 "Hg8 mi
1:54 PM65 °FMostly cloudy.8 mph78%30.06 "Hg8 mi
12:54 PM64 °FMostly cloudy.8 mph78%30.07 "Hg9 mi
11:54 AM63 °FMostly cloudy.8 mph81%30.07 "Hg10 mi
10:54 AM62 °FMostly cloudy.6 mph83%30.07 "Hg10 mi
9:54 AM61 °FMostly cloudy.9 mph87%30.07 "Hg8 mi
8:54 AM59 °FFog.9 mph90%30.06 "Hg4 mi
7:54 AM59 °FFog.6 mph90%30.04 "Hg4 mi
6:54 AM58 °FFog.6 mph93%30.03 "Hg4 mi
5:54 AM58 °FFog.7 mph93%30.02 "Hg5 mi
4:54 AM59 °FFog.8 mph87%30.01 "Hg6 mi
3:54 AM59 °FFog.7 mph87%30.00 "Hg6 mi
2:54 AM59 °FMostly cloudy.9 mph90%29.99 "Hg7 mi
Weather by CustomWeather, © 2014

See weather overviewHow to use our weather pages